{"data":{"norad_id":68291,"epoch":"2026-09-20T00:48:28.480608Z","epoch_age_seconds":112500,"freshness":"FRESH","line1":"1 68291U 26056A   26263.03366297  .00002797  00000+0  23817-3 0  9998","line2":"2 68291  50.2817 261.2751 0016335 251.1496 108.7682 15.00763571 27513","mean_motion":15.00763571,"eccentricity":0.0016335,"inclination_deg":50.2817,"raan_deg":261.2751,"arg_perigee_deg":251.1496,"mean_anomaly_deg":108.7682,"bstar":0.00023817,"rev_number":2751,"period_min":95.951156319745,"perigee_km":553.19958093754,"apogee_km":575.88130814887,"semimajor_km":6942.6774445432,"source":"CELESTRAK","updated_at":"2026-09-20T09:00:24.118395Z"}}